This demonstration page uses our WeatherBlox Daily Observations layout. Learn more.

41.55636, -103.73856

Hourly Observations for December 9, 2016

Temp ( °F °C ) Dew Point ( °F °C ) Humidity (%) Winds ( mph kmh ) Pressure ( in mb ) Visibility ( mi km ) Precip ( " mm )
12:53 am 00:53 Cloudy 8 -13.3 1 -17.2 73 73 ESE 14 22 30.39 1029 10 16.0934 0 0
1:53 am 01:53 Cloudy 9 -12.8 3 -16.1 77 77 ESE 15 24 30.37 1029 10 16.0934 0 0
2:53 am 02:53 Cloudy 12 -11.1 5 -15 73 73 ESE 14 22 30.32 1027 10 16.0934 0 0.0254
3:53 am 03:53 Cloudy 13 -10.6 7 -13.9 77 77 ESE 15 24 30.32 1027 10 16.0934 0 0
4:53 am 04:53 Cloudy 16 -8.9 7 -13.9 67 67 ESE 13 20 30.3 1026 10 16.0934 0 0
5:53 am 05:53 Cloudy 16 -8.9 8 -13.3 71 71 ESE 10 17 30.29 1026 10 16.0934 0 0
6:53 am 06:53 Clear 17 -8.3 8 -13.3 68 68 E 10 17 30.31 1026 10 16.0934 0 0
7:53 am 07:53 Cloudy 16 -8.9 8 -13.3 71 71 E 8 13 30.34 1028 10 16.0934 0 0
8:53 am 08:53 Sunny 19 -7.2 9 -12.8 65 65 NE 7 11 30.35 1028 10 16.0934 0 0
9:53 am 09:53 Sunny 21 -6.1 9 -12.8 59 59 NNE 3 6 30.36 1028 10 16.0934 0 0
10:53 am 10:53 Sunny 23 -5 9 -12.8 55 55 N 6 9 30.36 1028 10 16.0934 0 0
11:53 am 11:53 Sunny 26 -3.3 11 -11.7 53 53 N 9 15 30.33 1027 10 16.0934 0 0
12:53 pm 12:53 Sunny 27 -2.8 11 -11.7 51 51 NNE 8 13 30.33 1027 10 16.0934 0 0
1:53 pm 13:53 Sunny 27 -2.8 10 -12.2 49 49 NNE 7 11 30.34 1028 10 16.0934 0 0
2:53 pm 14:53 Sunny 26 -3.3 11 -11.7 53 53 ENE 8 13 30.34 1028 10 16.0934 0 0
3:53 pm 15:53 Sunny 22 -5.6 10 -12.2 60 60 E 9 15 30.35 1028 10 16.0934 0 0
4:53 pm 16:53 Clear 19 -7.2 9 -12.8 65 65 E 9 15 30.37 1029 10 16.0934 0 0
5:53 pm 17:53 Clear 15 -9.4 5 -15 64 64 E 13 20 30.37 1029 10 16.0934 0 0
6:53 pm 18:53 Cloudy 15 -9.4 5 -15 64 64 ESE 7 11 30.37 1029 10 16.0934 0 0
7:53 pm 19:53 Cloudy 14 -10 5 -15 67 67 ESE 10 17 30.36 1028 10 16.0934 0 0
8:53 pm 20:53 Partly Cloudy 14 -10 5 -15 67 67 ESE 10 17 30.35 1028 10 16.0934 0 0
9:53 pm 21:53 Cloudy 14 -10 5 -15 67 67 E 12 19 30.33 1027 10 16.0934 0 0
10:53 pm 22:53 Cloudy 13 -10.6 5 -15 70 70 ESE 18 30 30.29 1026 10 16.0934 0 0
11:53 pm 23:53 Cloudy 14 -10 6 -14.4 71 71 ESE 17 28 30.24 1024 10 16.0934 0 0

Powered by AerisWeather